Savoonga, AK

5:53 PM AKDT on June 28, 2017 (GMT -0800)
Savoonga

Weather History for PASA - June, 2013

Change the Weather History Date:

Tuesday, June 18, 2013

  Actual Average Record
Temperature  
Mean Temperature 42 °F -  
Max Temperature 48 °F 43 °F 57 °F (2002)
Min Temperature 37 °F 35 °F 30 °F (1999)
Degree Days  
Heating Degree Days 22    
Moisture  
Dew Point 39 °F    
Average Humidity 88    
Maximum Humidity 100    
Minimum Humidity 76    
Precipitation  
Precipitation 0.00 in - - ()
Sea Level Pressure  
Sea Level Pressure 30.13 in    
Wind  
Wind Speed 8 mph (West)    
Max Wind Speed 17 mph    
Max Gust Speed -    
Visibility 8 miles    
Events      
Averages and records for this station are not official NWS values.
T = Trace of Precipitation, MM = Missing Value Source: NWS Daily Summary

Daily Weather History Graph

Daily Weather History Graph

Search for Another Location

Airport or City:

Trip Planner

Search our weather history database for the weather conditions in past years. The results will help you decide how hot, cold, wet, or windy it might be!

Date:

Astronomy

Jun. 18, 2013 Rise Set
Actual Time 5:00 AM AKDT 1:46 AM AKDT
Civil Twilight Sun does not set Sun does not set
Nautical Twilight Sun does not set Sun does not set
Astronomical Twilight Sun does not set Sun does not set
Moon 6:59 PM AKDT (6/18) 3:19 AM AKDT (6/18)
Length of Visible Light 24h 00m
Length of Day
20h 46m
Waxing Gibbous, 72% of the Moon is Illuminated
Jun 18
Waxing Gibbous
Jun 23
Full
Jun 29
Last Quarter
Jul 7
New
Jul 15
First Quarter

Hourly Weather History & Observations

Time (AKDT) Temp. Windchill Dew Point Humidity Pressure Visibility Wind Dir Wind Speed Gust Speed Precip Events Conditions
12:16 AM 41.0 °F 39.0 °F 39.2 °F 93% 30.15 in 7.0 mi WSW 3.5 mph - N/A   Overcast
12:36 AM 42.8 °F 39.3 °F 42.8 °F 100% 30.15 in 10.0 mi WSW 5.8 mph - N/A   Mostly Cloudy
12:56 AM 42.8 °F 41.1 °F 39.2 °F 87% 30.16 in 10.0 mi WSW 3.5 mph - N/A   Partly Cloudy
1:16 AM 39.2 °F 37.0 °F 39.2 °F 100% 30.16 in 5.0 mi WSW 3.5 mph - N/A   Mostly Cloudy
1:36 AM 41.0 °F 38.0 °F 39.2 °F 93% 30.16 in 6.0 mi WSW 4.6 mph - N/A   Scattered Clouds
1:56 AM 41.0 °F - 39.2 °F 93% 30.16 in 10.0 mi Calm Calm - N/A   Clear
2:16 AM 41.0 °F 39.0 °F 39.2 °F 93% 30.17 in 10.0 mi West 3.5 mph - N/A   Clear
2:36 AM 41.0 °F - 39.2 °F 93% 30.17 in 10.0 mi Calm Calm - N/A   Clear
2:56 AM 39.2 °F - 39.2 °F 100% 30.18 in 9.0 mi Calm Calm - N/A   Clear
3:16 AM 41.0 °F 37.1 °F 41.0 °F 100% 30.17 in 10.0 mi West 5.8 mph - N/A   Clear
3:36 AM 42.8 °F 38.6 °F 41.0 °F 93% 30.17 in 9.0 mi West 6.9 mph - N/A   Clear
3:56 AM 41.0 °F - 39.2 °F 93% 30.17 in 1.2 mi Calm Calm - N/A   Clear
4:16 AM 41.0 °F 35.8 °F 39.2 °F 93% 30.17 in 1.5 mi West 8.1 mph - N/A   Clear
4:36 AM 39.2 °F 35.0 °F 37.4 °F 93% 30.17 in 0.5 mi West 5.8 mph - N/A   Unknown
4:56 AM 39.2 °F 35.9 °F 39.2 °F 100% 30.16 in 5.0 mi WNW 4.6 mph - N/A   Scattered Clouds
5:16 AM 37.4 °F - 35.6 °F 93% 30.17 in 1.0 mi Calm Calm - N/A   Overcast
5:36 AM 37.4 °F - 37.4 °F 100% 30.17 in 0.2 mi Calm Calm - N/A   Overcast
5:56 AM 37.4 °F - 37.4 °F 100% 30.17 in 0.2 mi Calm Calm - N/A   Overcast
6:16 AM 39.2 °F 35.0 °F 37.4 °F 93% 30.17 in 0.2 mi West 5.8 mph - N/A   Overcast
6:36 AM 37.4 °F 32.1 °F 37.4 °F 100% 30.16 in 0.2 mi West 6.9 mph - N/A   Overcast
6:56 AM 37.4 °F 32.1 °F 37.4 °F 100% 30.17 in 0.2 mi West 6.9 mph - N/A   Overcast
7:16 AM 39.2 °F 33.6 °F 37.4 °F 93% 30.17 in 0.2 mi WSW 8.1 mph - N/A   Overcast
7:36 AM 39.2 °F 33.0 °F 37.4 °F 93% 30.17 in 0.2 mi WSW 9.2 mph - N/A   Overcast
7:56 AM 39.2 °F 33.0 °F 37.4 °F 93% 30.16 in 0.2 mi WSW 9.2 mph - N/A   Overcast
8:16 AM 39.2 °F 33.0 °F 37.4 °F 93% 30.16 in 0.2 mi WSW 9.2 mph - N/A   Overcast
8:36 AM 39.2 °F 32.0 °F 37.4 °F 93% 30.16 in 2.5 mi West 11.5 mph - N/A   Overcast
8:56 AM 39.2 °F 32.0 °F 37.4 °F 93% 30.16 in 0.5 mi West 11.5 mph - N/A   Overcast
9:16 AM 37.4 °F 30.3 °F 37.4 °F 100% 30.17 in 0.2 mi West 10.4 mph - N/A   Overcast
9:36 AM 39.2 °F 32.0 °F 37.4 °F 93% 30.16 in 3.0 mi West 11.5 mph - N/A   Overcast
9:56 AM 39.2 °F 32.0 °F 37.4 °F 93% 30.16 in 10.0 mi West 11.5 mph - N/A   Scattered Clouds
10:16 AM 39.2 °F 32.5 °F 39.2 °F 100% 30.16 in 10.0 mi West 10.4 mph - N/A   Clear
10:36 AM 42.8 °F 37.5 °F 39.2 °F 87% 30.16 in 10.0 mi West 9.2 mph - N/A   Clear
10:56 AM 44.6 °F 39.2 °F 41.0 °F 87% 30.16 in 10.0 mi West 10.4 mph - N/A   Clear
11:16 AM 44.6 °F 38.4 °F 41.0 °F 87% 30.16 in 10.0 mi West 12.7 mph - N/A   Clear
11:36 AM 46.4 °F 40.7 °F 42.8 °F 87% 30.16 in 10.0 mi West 12.7 mph - N/A   Clear
11:56 AM 46.4 °F 41.1 °F 41.0 °F 81% 30.16 in 10.0 mi West 11.5 mph - N/A   Clear
12:16 PM 46.4 °F 41.5 °F 39.2 °F 76% 30.16 in 10.0 mi West 10.4 mph - N/A   Clear
12:36 PM 44.6 °F 39.7 °F 39.2 °F 81% 30.16 in 10.0 mi West 9.2 mph - N/A   Clear
12:56 PM 44.6 °F 39.2 °F 41.0 °F 87% 30.15 in 10.0 mi West 10.4 mph - N/A   Clear
1:16 PM 46.4 °F 40.7 °F 42.8 °F 87% 30.15 in 10.0 mi West 12.7 mph - N/A   Clear
1:36 PM 46.4 °F 41.5 °F 41.0 °F 81% 30.15 in 10.0 mi West 10.4 mph - N/A   Clear
1:56 PM 44.6 °F 39.2 °F 41.0 °F 87% 30.15 in 10.0 mi West 10.4 mph - N/A   Clear
2:16 PM 44.6 °F 39.2 °F 39.2 °F 81% 30.14 in 10.0 mi West 10.4 mph - N/A   Clear
2:36 PM 44.6 °F 39.2 °F 41.0 °F 87% 30.14 in 10.0 mi West 10.4 mph - N/A   Clear
2:56 PM 44.6 °F 39.2 °F 41.0 °F 87% 30.14 in 10.0 mi West 10.4 mph - N/A   Clear
3:16 PM 48.2 °F - 41.0 °F 76% 30.13 in 10.0 mi West 9.2 mph - N/A   Clear
3:36 PM 46.4 °F 41.5 °F 41.0 °F 81% 30.13 in 10.0 mi West 10.4 mph - N/A   Clear
3:56 PM 44.6 °F 39.2 °F 41.0 °F 87% 30.12 in 10.0 mi West 10.4 mph - N/A   Clear
4:16 PM 48.2 °F - 41.0 °F 76% 30.12 in 10.0 mi West 12.7 mph - N/A   Clear
4:36 PM 46.4 °F 41.1 °F 41.0 °F 81% 30.11 in 10.0 mi West 11.5 mph - N/A   Clear
4:56 PM 46.4 °F 41.1 °F 41.0 °F 81% 30.11 in 10.0 mi West 11.5 mph - N/A   Clear
5:16 PM 44.6 °F 38.8 °F 39.2 °F 81% 30.11 in 10.0 mi West 11.5 mph - N/A   Clear
5:36 PM 48.2 °F - 42.8 °F 82% 30.10 in 10.0 mi West 12.7 mph - N/A   Clear
5:56 PM 46.4 °F 40.4 °F 41.0 °F 81% 30.10 in 10.0 mi West 13.8 mph - N/A   Clear
6:16 PM 46.4 °F 40.4 °F 39.2 °F 76% 30.10 in 10.0 mi West 13.8 mph - N/A   Clear
6:36 PM 46.4 °F 40.1 °F 41.0 °F 81% 30.09 in 10.0 mi West 15.0 mph - N/A   Clear
6:56 PM 46.4 °F 39.8 °F 41.0 °F 81% 30.08 in 10.0 mi West 16.1 mph - N/A   Clear
7:16 PM 46.4 °F 40.4 °F 41.0 °F 81% 30.08 in 10.0 mi West 13.8 mph - N/A   Clear
7:36 PM 44.6 °F 37.4 °F 39.2 °F 81% 30.07 in 10.0 mi West 16.1 mph - N/A   Clear
7:56 PM 46.4 °F 39.8 °F 39.2 °F 76% 30.06 in 10.0 mi West 16.1 mph - N/A   Clear
8:16 PM 46.4 °F 39.8 °F 41.0 °F 81% 30.06 in 10.0 mi West 16.1 mph - N/A   Clear
8:36 PM 46.4 °F 39.8 °F 41.0 °F 81% 30.05 in 10.0 mi WSW 16.1 mph - N/A   Clear
8:56 PM 46.4 °F 39.8 °F 39.2 °F 76% 30.05 in 10.0 mi WSW 16.1 mph - N/A   Clear
9:16 PM 44.6 °F 37.2 °F 39.2 °F 81% 30.04 in 10.0 mi WSW 17.3 mph - N/A   Clear
9:36 PM 44.6 °F 38.1 °F 39.2 °F 81% - 10.0 mi WSW 13.8 mph - N/A   Clear
9:56 PM 44.6 °F 37.8 °F 39.2 °F 81% 30.04 in 10.0 mi WSW 15.0 mph - N/A   Clear
10:16 PM 44.6 °F 37.8 °F 39.2 °F 81% 30.03 in 10.0 mi WSW 15.0 mph - N/A   Clear
10:36 PM 44.6 °F 37.8 °F 39.2 °F 81% 30.03 in 10.0 mi WSW 15.0 mph - N/A   Partly Cloudy
10:56 PM 42.8 °F 35.1 °F 39.2 °F 87% 30.03 in 10.0 mi WSW 16.1 mph - N/A   Clear
11:16 PM 41.0 °F 33.1 °F 37.4 °F 87% 30.02 in 10.0 mi West 15.0 mph - N/A   Partly Cloudy
11:36 PM 41.0 °F 33.1 °F 37.4 °F 87% 30.01 in 10.0 mi WSW 15.0 mph - N/A   Mostly Cloudy
11:56 PM 39.2 °F 30.8 °F 37.4 °F 93% 30.01 in 10.0 mi WSW 15.0 mph - N/A   Overcast